This demonstration page uses our WeatherBlox Daily Observations layout. Learn more.

Left ArrowRight Arrow

39.08367, -84.50855

Hourly Observations for April 2, 2018

Temp ( °F °C ) Dew Point ( °F °C ) Humidity (%) Winds ( mph kmh ) Pressure ( in mb ) Visibility ( mi km ) Precip ( " mm )
12:00 am 00:00 Cloudy with Light Snow 33 0.6 33 0.6 100 100 N N/A 30.15 1021 2 2 0.01 0.25
12:22 am 00:22 Cloudy with Light Snow 33 0.6 33 0.6 100 100 NE 3 6 30.15 1021 3 4 0.03 0.76
12:51 am 00:51 Cloudy with Light Snow 34 1 34 1 100 100 N 5 7 30.12 1020 3 5 0.04 1.02
12:53 am 00:53 Cloudy with Light Snow 33 0.6 33 0.6 100 100 N 3 6 30.12 1020 4 6 0.04 1.02
1:25 am 01:25 Cloudy 34 1.1 34 1.1 100 100 NNE 6 9 30.09 1019 7 11 0.01 0.25
1:53 am 01:53 Cloudy 34 1.1 34 1.1 100 100 NE 3 6 30.10 1019 7 11 0.01 0.25
2:24 am 02:24 Cloudy 34 1.1 33 0.6 97 97 NNE 7 11 30.12 1020 10 16 N/A
2:53 am 02:53 Cloudy 35 1.7 33 0.6 93 93 N 6 9 30.11 1020 10 16 N/A
3:53 am 03:53 Cloudy 35 1.7 33 0.6 93 93 NNE 7 11 30.09 1019 10 16 N/A
4:09 am 04:09 Cloudy 35 1.7 33 0.6 93 93 NNE 7 11 30.09 1019 10 16 N/A
4:45 am 04:45 Cloudy 35 1.7 33 0.6 93 93 NNE 6 9 30.09 1019 10 16 N/A
4:53 am 04:53 Cloudy 35 1.7 34 1.1 96 96 NE 8 13 30.10 1019 10 16 N/A
5:08 am 05:08 Cloudy 35 1.7 33 0.6 93 93 NE 7 11 30.09 1019 10 16 N/A
5:53 am 05:53 Cloudy 35 1.7 33 0.6 93 93 NE 6 9 30.12 1020 10 16 N/A
6:13 am 06:13 Cloudy 35 1.7 33 0.6 93 93 NNE 7 11 30.12 1020 10 16 N/A
6:53 am 06:53 Cloudy 35 1.7 32 undefined 89 89 NNE 9 15 30.13 1020 10 16 N/A
7:53 am 07:53 Cloudy 35 1.7 33 0.6 93 93 NNE 7 11 30.15 1021 10 16 N/A
8:53 am 08:53 Cloudy 34 1.1 31 -0.6 89 89 NE 12 19 30.16 1021 10 16 N/A
9:53 am 09:53 Cloudy 34 1.1 31 -0.6 89 89 NE 9 15 30.17 1022 10 16 N/A
10:53 am 10:53 Cloudy 35 1.7 31 -0.6 85 85 ENE 9 15 30.18 1022 10 16 N/A
11:53 am 11:53 Cloudy 38 3.3 31 -0.6 76 76 NE 8 13 30.16 1022 10 16 N/A
12:53 pm 12:53 Cloudy 39 3.9 32 undefined 76 76 ENE 8 13 30.16 1021 10 16 N/A
1:53 pm 13:53 Cloudy 40 4.4 34 1.1 79 79 NE 9 15 30.14 1021 10 16 N/A
2:53 pm 14:53 Cloudy 42 5.6 35 1.7 76 76 ENE 7 11 30.10 1019 10 16 N/A
3:53 pm 15:53 Cloudy 44 6.7 36 2.2 73 73 N N/A 30.08 1019 10 16 N/A
4:53 pm 16:53 Cloudy 46 7.8 37 2.8 71 71 VRB 5 7 30.05 1018 10 16 N/A
5:53 pm 17:53 Cloudy 46 7.8 38 3.3 73 73 VRB 3 6 30.05 1018 10 16 N/A
6:53 pm 18:53 Cloudy 46 7.8 38 3.3 73 73 SE 6 9 30.03 1017 10 16 N/A
7:53 pm 19:53 Cloudy 46 7.8 38 3.3 73 73 E 7 11 30.00 1016 10 16 N/A
8:00 pm 20:00 Cloudy 46 7.8 38 3.3 73 73 SE 7 11 30.00 1016 10 16 N/A
8:53 pm 20:53 Cloudy 46 7.8 39 3.9 77 77 E 8 13 29.98 1015 10 16 N/A
9:12 pm 21:12 Cloudy 46 7.8 39 3.9 77 77 ESE 3 6 29.97 1015 10 16 N/A
9:53 pm 21:53 Cloudy 46 7.8 39 3.9 77 77 E 5 7 29.97 1015 10 16 N/A
10:53 pm 22:53 Cloudy 46 7.8 40 4.4 79 79 S 5 7 29.97 1015 10 16 N/A
11:53 pm 23:53 Cloudy with Light Rain 45 7.2 41 5 86 86 S 6 9 29.92 1013 10 16 0.01 0.25

Powered by AerisWeather